Hourly Data Report for June 29, 2022

ALGONQUIN PARK EAST GATE
ONTARIO
Current Station Operator: ECCC - MSC

45°32'00.000" N
78°16'00.000" W
397.00 m
6080192
71581
TNK

Download Data

Hourly Data (June 2022)
Hourly Data Report for June 29, 2022
TIME
LST
Temp Definition
°C
Dew Point Definition
°C
Rel Hum Definition
%
Precip. Amount Definition
mm

Wind Dir Definition
10's deg

Wind Spd Definition
km/h
Visibility Definition
km
Stn Press Definition
kPa
Hmdx Definition


Wind Chill Definition


Weather Definition


00:00 12.2 10.6 90 0.0 36 1   97.22     LegendNANA
01:00 13.3 11.4 88 0.0 20 1   97.23     LegendNANA
02:00 13.5 11.2 86 0.0 0 1   97.20     LegendNANA
03:00 13.3 12.1 92 0.0   0   97.20     LegendNANA
04:00 12.6 11.5 93 0.0 0 1   97.19     LegendNANA
05:00 12.7 11.7 94 0.0   0   97.24     LegendNANA
06:00 13.7 12.7 94 0.0 0 1   97.25     LegendNANA
07:00 14.1 13.4 96 0.8   0   97.27     LegendNANA
08:00 14.5 13.9 96 0.9 25 2   97.31     LegendNANA
09:00 14.3 13.9 97 14.8 0 1   97.32     LegendNANA
10:00 15.2 14.6 96 2.5 24 3   97.34     LegendNANA
11:00 14.2 13.0 92 5.1 33 3   97.38     LegendNANA
12:00 16.5 14.5 88 2.0 1 3   97.39     LegendNANA
13:00 17.2 12.0 71 0.0 1 5   97.39     LegendNANA
14:00 18.8 12.4 66 0.0 36 4   97.36     LegendNANA
15:00 18.1 12.5 69 0.0 0 1   97.38     LegendNANA
16:00 19.8 9.7 52 0.0 36 5   97.35     LegendNANA
17:00 19.2 11.7 62 0.0 34 3   97.35     LegendNANA
18:00 17.2 13.7 80 0.0 0 1   97.41     LegendNANA
19:00 16.5 14.9 91 0.0   0   97.44     LegendNANA
20:00 15.9 14.7 93 0.0   0   97.50     LegendNANA
21:00 14.5 13.5 94 0.0 0 1   97.54     LegendNANA
22:00 12.3 11.6 95 0.0 0 1   97.56     LegendNANA
23:00 10.6 10.1 96 0.0 0 1   97.58     LegendNANA

Notes on Data Quality.

Legend

  • E = Estimated
  • M = Missing
  • NA = Not Available*
  • [empty] = Indicates an unobserved value
Date modified: